LINCS1 (48902 NORAD) Tracking and Keplerian Element Data

This shows tracking and keplerian element data for the satellite.

Feedback or suggestion? Click here.




ElementValue
Catalog48902
NameLINCS1
Epoch Orbit1387
Epoch Day268.59628927
Epoch Year2021
RAAN36.0596
Inclination97.5246
Eccentricity0.0009802
Argument of Perigee302.4258
Mean Anonmoly57.6024
Mean Motion15.12437818
Decay Rate1.889E-05
L11 48902U 21059Z 21268.59628927 .00001889 00000-0 11238-3 0 9991
L22 48902 97.5246 36.0596 0009802 302.4258 57.6024 15.12437818 13873

Live tracking and technical data element details for LINCS1 (NORAD 48902). LINCS1 can be tracked NOW for your location showing map with azimuth and elevation plus other details from your city location.

Track the satellite on the map from your city or location and see movement details for azimuth, elevation, latitude, longitude, range, height, and movement on the map or in text.







IsCatalogInMostPopularTable: catalog: 48902, numindb: 15
Update: records affected: 1



GetName: 48902 LINCS1

Hit Count: updated at: Sun, 26 Sep 2021 16:27:02 GMT